This is the latest recevied weather packets stored in our database for station/object GBTWP-2. If no packets are shown the sender has not sent any weather packets the latest 10 day(s).
| Time | Temp. | Humidity | Pressure | Rain* | Wind** | Luminosity | Snow |
|---|---|---|---|---|---|---|---|
| 1778094003 | 10.56° C | 48% | 1015.5 hPa | 0 mm | - | 129 W/m² | - |
| 1778091902 | 10.56° C | 47% | 1015.3 hPa | 0 mm | - | 109 W/m² | - |
| 1778091002 | 10° C | 51% | 1015.5 hPa | 0 mm | - | 135 W/m² | - |
| 1778090702 | 10° C | 50% | 1015.4 hPa | 0 mm | - | 177 W/m² | - |
| 1778090402 | 10° C | 50% | 1015.5 hPa | 0 mm | - | 116 W/m² | - |
| 1778090102 | 9.44° C | 51% | 1015.4 hPa | 0 mm | - | 132 W/m² | - |
| 1778089802 | 10° C | 51% | 1015.6 hPa | 0 mm | - | 85 W/m² | - |
| 1778089202 | 10° C | 50% | 1015.7 hPa | 0 mm | - | 112 W/m² | - |
| 1778088902 | 10° C | 48% | 1015.6 hPa | 0 mm | - | 124 W/m² | - |
| 1778088603 | 10° C | 50% | 1015.7 hPa | 0 mm | - | 100 W/m² | - |
| 1778088302 | 10° C | 55% | 1015.7 hPa | 0 mm | - | 139 W/m² | - |
| 1778088002 | 10° C | 49% | 1015.6 hPa | 0 mm | - | 125 W/m² | - |
| 1778087701 | 9.44° C | 50% | 1015.7 hPa | 0 mm | - | 102 W/m² | - |
| 1778087402 | 10° C | 50% | 1015.6 hPa | 0 mm | - | 93 W/m² | - |
| 1778087101 | 10° C | 51% | 1015.3 hPa | 0 mm | - | 116 W/m² | - |
| 1778086802 | 10° C | 55% | 1015.4 hPa | 0 mm | - | 121 W/m² | - |
| 1778086502 | 9.44° C | 57% | 1015.4 hPa | 0 mm | - | 108 W/m² | - |
| 1778086202 | 10° C | 56% | 1015.6 hPa | 0 mm | - | 60 W/m² | - |
| 1778085602 | 10° C | 57% | 1015.6 hPa | 0 mm | - | 115 W/m² | - |
| 1778085001 | 9.44° C | 58% | 1015.9 hPa | 0 mm | - | 110 W/m² | - |
| 1778084102 | 9.44° C | 55% | 1015.8 hPa | 0 mm | - | 144 W/m² | - |
| 1778083801 | 8.89° C | 55% | 1016 hPa | 0 mm | - | 187 W/m² | - |
| 1778083201 | 8.89° C | 57% | 1015.7 hPa | 0 mm | - | 108 W/m² | - |
| 1778082002 | 8.89° C | 61% | 1015.7 hPa | 0 mm | - | 70 W/m² | - |
| 1778081702 | 9.44° C | 57% | 1015.6 hPa | 0 mm | - | 84 W/m² | - |
* Rain latest hour (hover to see other rain measurements)
** Current wind speed in m/s (hover to see current wind gust speed)